Wetbulb
61.95 64.88 66.53 68.41 69.10 69.41 68.53 67.30 67.12 66.25 66.34 66.06 66.08 67.04 67.71 68.13 67.95 67.47 66.99 68.00 69.69 70.84 70.92 71.17 71.05 71.15 71.44 71.73 71.89 71.70 71.53 71.51 71.76 72.41 73.07 73.43 73.56 73.78 73.68 73.89 73.84 72.94 74.19
62.73 65.39 67.10 70.03 68.93 68.73 68.78 68.03 66.61 66.72 66.24 66.08 65.70 66.22 67.69 67.60 67.93 66.78 66.07 67.04 69.28 69.80 69.87 69.42 69.24 69.34 69.87 70.45 70.66 70.49 70.47 69.83 70.08 70.42 72.05 72.19 72.40 72.42 72.38 72.22 72.88 71.86 72.55
63.81 66.76 68.40 68.62 67.87 68.29 67.08 66.69 66.41 66.74 66.27 66.23 65.95 66.46 67.03 65.97 66.84 66.46 65.85 67.41 68.31 68.60 68.73 68.93 68.10 68.43 68.39 69.07 68.95 69.05 68.95 68.37 68.10 68.52 70.97 70.16 70.05 71.40 71.53 70.90 71.01 71.09 71.38
66.01 67.28 67.79 67.88 67.46 67.39 66.98 66.74 67.82 66.88 66.11 65.45 65.97 66.34 66.43 66.51 66.43 66.24 64.83 66.68 67.44 67.43 67.57 68.48 68.10 67.18 67.19 66.92 67.22 67.65 67.61 67.10 67.02 68.55 70.09 69.26 68.85 69.93 70.32 70.26 70.31 70.20 70.56
66.17 68.55 66.84 66.90 66.31 66.60 66.20 67.96 66.04 65.48 65.43 66.14 65.88 65.60 65.92 65.43 65.95 65.81 64.93 65.34 66.25 66.02 66.48 66.48 67.07 66.61 66.38 65.89 66.02 66.32 66.38 66.03 65.69 68.53 68.42 68.83 68.60 67.98 68.85 69.26 69.19 69.24 69.23
66.27 68.44 67.05 66.32 67.15 66.42 65.47 66.94 65.77 65.39 65.93 64.93 65.45 65.69 65.44 65.38 65.68 65.08 64.73 64.28 64.35 64.27 64.76 64.86 65.21 65.83 65.48 65.13 65.65 65.55 65.86 65.13 67.51 66.90 67.16 66.99 67.45 67.59 68.09 68.05 67.86 67.64 67.67
65.42 67.13 67.20 67.83 68.51 67.32 66.85 66.26 65.60 65.59 64.95 65.07 64.62 64.26 63.32 63.63 63.95 63.41 63.32 63.67 63.65 63.43 63.79 63.85 63.88 64.29 64.25 64.80 65.24 65.09 64.73 64.39 65.30 65.87 66.37 65.47 66.02 67.43 67.05 67.28 66.86 66.67 66.63
63.77 65.46 67.16 68.05 68.65 67.53 67.09 66.20 65.81 65.48 65.09 65.67 64.40 63.32 62.95 62.37 61.95 61.65 61.77 62.26 62.36 62.02 62.23 62.66 62.56 62.33 62.56 62.41 63.66 64.09 63.88 63.39 65.04 65.34 64.64 65.58 65.95 66.13 66.54 66.15 65.73 66.32 66.33
64.51 65.05 66.91 66.46 67.03 66.75 66.25 66.65 65.37 64.57 65.07 64.26 62.88 61.69 60.98 60.45 60.49 60.60 60.86 60.86 61.02 60.74 60.13 60.20 60.41 60.13 60.47 60.78 60.93 61.09 61.41 61.47 63.90 64.20 64.24 63.76 64.76 65.61 65.95 65.80 65.56 65.46 65.46
64.81 65.80 65.08 65.40 64.73 65.27 65.82 65.99 65.45 65.04 64.37 62.27 62.04 61.07 60.36 59.67 59.62 60.43 59.46 59.76 58.96 58.81 59.06 57.80 57.17 57.60 57.88 58.12 59.64 59.75 57.83 56.92 61.90 63.22 63.97 64.25 64.21 64.47 64.73 64.31 64.66 64.83 64.90
63.61 64.49 65.02 65.23 64.30 65.11 64.50 65.07 65.18 64.46 63.07 62.56 62.46 61.14 59.83 60.30 59.91 59.39 58.98 57.72 57.62 57.47 56.84 56.31 56.45 57.11 58.07 58.91 58.80 56.67 54.75 57.51 59.09 61.48 62.88 61.72 62.65 63.32 63.60 63.67 63.75 63.91 64.16
61.72 63.39 64.51 64.63 64.93 64.18 63.34 63.85 63.30 64.28 62.22 63.23 62.70 61.47 61.49 59.18 58.66 58.50 57.69 58.84 58.16 58.64 57.51 58.39 59.70 57.39 56.53 57.84 57.69 57.23 57.39 57.00 57.85 57.69 60.86 59.28 60.83 61.87 62.21 62.30 62.29 62.58 63.02
60.96 62.94 63.75 64.36 64.35 64.50 64.24 64.54 63.63 63.00 63.41 63.35 61.82 61.26 60.65 59.10 57.64 58.58 58.78 58.61 59.39 56.47 58.80 57.81 58.16 58.32 56.22 57.50 57.52 57.60 57.38 56.84 57.33 57.48 57.00 56.38 59.05 60.87 60.99 60.74 61.06 61.62 62.06
60.25 61.65 63.25 64.14 64.21 64.10 64.34 63.92 63.68 63.35 63.33 63.02 62.81 60.95 59.56 58.16 57.90 58.10 58.44 59.08 58.49 57.94 57.92 58.52 58.02 57.93 57.06 56.42 56.21 56.15 55.96 56.92 57.00 57.10 57.69 55.53 59.39 59.35 61.62 61.38 60.90 60.94 61.16
59.98 60.94 62.47 63.83 64.04 63.99 63.75 63.66 63.51 62.94 62.93 62.99 62.73 61.47 59.75 57.43 57.15 58.48 59.35 58.82 57.76 57.74 57.75 57.75 57.75 57.39 56.61 56.25 56.34 56.04 55.73 55.91 56.13 57.00 57.51 55.67 58.29 59.66 60.23 62.05 62.38 62.15 61.84
60.58 60.84 62.14 63.05 63.87 64.20 63.75 63.26 62.92 63.11 63.10 63.02 62.27 61.58 60.36 58.33 57.87 58.81 59.52 58.12 57.66 57.83 57.77 56.87 56.89 56.92 56.77 56.40 56.04 56.17 56.07 56.60 56.29 56.58 57.25 57.65 56.84 60.91 60.37 61.08 62.56 62.81 62.78
61.34 61.58 61.65 62.64 63.61 63.59 63.52 63.35 63.36 63.02 62.51 62.13 61.70 61.68 60.56 59.63 58.23 58.64 59.22 58.25 58.00 58.19 56.47 56.44 55.92 56.16 56.17 56.41 55.69 56.44 56.82 57.21 57.13 56.96 57.09 57.78 57.96 59.64 61.06 60.72 61.88 62.92 62.96
61.82 61.56 62.11 62.08 62.84 63.33 63.44 63.42 63.19 62.95 62.73 62.32 62.06 62.19 61.40 60.34 59.78 59.31 59.25 58.95 58.89 57.94 56.98 56.52 56.12 55.73 55.82 55.90 55.91 56.70 57.00 57.72 57.73 57.88 57.94 57.60 57.91 58.25 60.65 60.98 61.20 62.40 63.06
60.84 61.85 61.85 62.54 62.35 62.76 63.36 63.39 63.30 62.90 62.80 62.80 62.51 62.29 62.21 61.02 60.21 59.77 59.58 59.39 58.51 57.80 56.95 56.71 56.05 55.70 55.49 55.69 55.83 56.36 57.16 57.67 58.08 57.40 57.47 57.59 58.14 58.22 59.56 60.69 60.69 62.32 62.57
60.11 61.20 62.10 62.48 62.71 62.94 63.13 63.10 62.88 62.79 62.70 62.97 62.38 62.21 62.23 61.64 60.60 60.05 59.69 59.15 58.37 57.16 56.43 56.55 56.02 56.62 55.86 55.87 54.57 54.44 56.60 57.69 58.37 58.43 57.90 57.63 58.13 58.54 59.24 59.36 59.29 60.13 61.60
58.77 59.71 60.80 61.48 62.33 62.53 62.02 61.20 61.14 60.93 61.71 62.13 62.41 62.30 62.17 62.04 60.96 60.46 59.80 59.05 58.23 56.95 56.06 56.87 56.44 55.60 55.81 56.72 54.86 55.80 56.63 57.08 57.05 57.54 58.20 57.77 57.67 57.92 58.43 58.54 58.70 58.73 59.97
54.53 58.16 59.51 60.44 61.70 62.07 62.11 61.95 61.93 61.83 62.13 62.15 62.48 62.24 62.19 61.94 61.50 60.14 59.70 58.90 58.33 57.16 56.71 56.04 55.81 55.52 55.62 56.52 54.31 54.42 53.32 55.99 56.40 56.90 57.07 56.63 57.09 57.68 56.98 57.11 57.53 57.87 59.09
54.57 54.88 57.12 58.55 60.10 61.27 61.66 61.63 60.90 60.97 60.72 60.17 60.63 61.04 61.61 61.51 61.33 60.27 59.68 59.17 58.58 57.78 57.03 57.01 56.34 55.63 54.43 56.14 55.70 54.10 52.66 53.89 55.78 56.89 55.91 56.34 56.09 56.56 56.96 56.90 56.65 57.28 58.16
54.58 56.62 56.77 56.70 57.35 59.19 60.55 59.83 59.64 59.50 59.08 60.93 60.78 61.35 61.33 61.18 60.86 60.25 59.51 59.14 58.62 58.26 57.27 57.68 57.30 56.57 56.03 54.60 55.91 54.92 55.51 54.71 52.69 54.19 56.94 55.86 56.19 55.56 56.51 57.01 56.53 56.60 57.33
51.85 54.17 56.58 57.23 57.29 57.42 57.91 58.34 58.62 58.45 59.22 60.02 59.79 59.48 60.24 60.65 60.35 60.00 59.47 59.01 58.46 58.38 58.07 57.98 57.51 56.56 56.63 55.73 55.90 55.46 54.76 54.64 54.47 52.35 51.73 55.56 56.70 56.50 56.49 56.79 57.04 57.05 57.02
50.12 50.85 51.82 52.33 53.44 56.56 57.74 57.45 57.28 57.46 57.96 57.96 58.59 58.62 59.28 59.93 60.27 59.97 59.33 59.21 59.30 58.90 58.47 58.48 58.36 57.86 57.03 56.42 56.53 56.33 55.14 53.68 53.44 52.76 52.10 53.45 54.20 56.62 58.32 58.25 57.20 57.11 57.65
MSLP
1016.57 1016.83 1017.34 1017.39 1017.46 1017.52 1017.68 1017.84 1018.11 1018.44 1018.59 1018.58 1018.44 1018.34 1018.17 1018.15 1018.01 1017.83 1017.97 1017.78 1017.67 1017.36 1017.10 1016.85 1016.89 1017.01 1017.02 1016.99 1016.91 1016.76 1016.80 1016.81 1016.87 1016.67 1016.73 1016.69 1016.77 1016.76 1016.81 1016.77 1016.36 1016.60 1016.60
1016.35 1016.81 1017.33 1017.46 1017.61 1017.88 1018.17 1018.28 1018.36 1018.66 1018.81 1018.85 1018.81 1018.70 1018.56 1018.49 1018.33 1018.27 1018.27 1018.18 1018.13 1017.86 1017.68 1017.69 1017.59 1017.65 1017.74 1017.71 1017.50 1017.53 1017.57 1017.61 1017.52 1017.36 1017.38 1017.49 1017.47 1017.62 1017.60 1017.48 1017.25 1017.43 1017.44
1016.54 1016.97 1017.51 1017.46 1017.72 1018.13 1018.23 1018.38 1018.65 1018.87 1019.03 1019.17 1019.12 1019.05 1019.00 1018.77 1018.78 1018.77 1018.75 1018.72 1018.50 1018.27 1018.13 1018.09 1017.69 1018.02 1018.07 1018.18 1018.20 1018.30 1018.29 1018.24 1018.21 1018.06 1017.86 1017.89 1018.03 1018.20 1018.04 1018.08 1018.06 1018.14 1018.12
1016.63 1017.28 1017.47 1017.71 1017.97 1018.32 1018.65 1018.78 1019.04 1019.13 1019.31 1019.40 1019.45 1019.46 1019.40 1019.38 1019.34 1019.22 1019.13 1019.04 1019.02 1018.86 1018.73 1018.48 1018.69 1018.76 1018.86 1018.85 1018.99 1019.05 1019.11 1018.85 1018.79 1018.29 1017.54 1017.99 1018.34 1018.69 1018.56 1018.59 1018.59 1018.78 1018.54
1016.89 1017.05 1017.45 1018.02 1018.34 1018.50 1018.85 1019.21 1019.34 1019.52 1019.71 1019.82 1019.80 1019.84 1019.83 1019.73 1019.76 1019.74 1019.63 1019.39 1019.42 1019.34 1019.34 1019.58 1019.63 1019.53 1019.62 1019.57 1019.63 1019.77 1019.62 1019.42 1019.09 1018.42 1018.37 1018.53 1018.53 1019.13 1019.08 1019.09 1018.99 1019.21 1019.01
1016.89 1017.16 1017.94 1018.20 1018.45 1018.68 1019.08 1019.44 1019.55 1019.83 1019.96 1020.04 1020.08 1020.14 1020.29 1020.25 1020.26 1020.18 1020.19 1020.12 1020.10 1020.05 1020.00 1020.01 1020.05 1020.07 1020.04 1020.05 1020.15 1020.17 1019.78 1019.72 1019.07 1018.92 1018.93 1019.34 1019.26 1019.52 1019.62 1019.38 1019.53 1019.59 1019.53
1016.93 1017.17 1017.85 1018.30 1018.65 1018.91 1019.29 1019.66 1019.89 1020.08 1020.17 1020.26 1020.40 1020.57 1020.67 1020.71 1020.69 1020.75 1020.71 1020.65 1020.62 1020.44 1020.45 1020.50 1020.38 1020.31 1020.59 1020.49 1020.43 1020.39 1020.26 1020.17 1019.62 1019.44 1019.42 1019.73 1019.89 1020.16 1019.99 1019.90 1020.05 1019.99 1019.93
1017.19 1017.41 1018.17 1018.57 1018.89 1019.20 1019.50 1019.78 1020.07 1020.26 1020.48 1020.62 1020.71 1020.98 1021.10 1021.07 1021.12 1021.17 1021.10 1021.06 1021.07 1021.08 1021.00 1020.83 1020.83 1020.92 1020.83 1020.84 1020.72 1020.69 1020.57 1020.58 1019.89 1019.93 1020.10 1020.28 1020.55 1020.42 1020.34 1020.52 1020.58 1020.47 1020.41
1017.39 1018.09 1018.40 1018.41 1019.05 1019.31 1019.68 1019.96 1020.21 1020.44 1020.77 1020.94 1021.11 1021.34 1021.50 1021.54 1021.49 1021.45 1021.43 1021.46 1021.49 1021.46 1021.43 1021.39 1021.36 1021.26 1021.12 1021.08 1021.03 1020.92 1021.16 1021.01 1020.18 1020.32 1020.45 1020.83 1020.90 1020.90 1020.88 1020.98 1020.99 1020.93 1020.78
1017.57 1017.98 1017.98 1018.69 1019.05 1019.17 1019.74 1020.08 1020.38 1020.65 1020.93 1021.08 1021.28 1021.63 1021.77 1021.81 1021.85 1021.87 1021.81 1021.81 1021.79 1021.76 1021.74 1021.72 1021.67 1021.59 1021.47 1021.41 1021.29 1021.41 1021.57 1021.34 1020.71 1020.66 1020.69 1021.04 1021.23 1021.05 1021.14 1021.29 1021.31 1021.23 1021.17
1017.70 1017.99 1018.14 1018.49 1019.10 1019.44 1019.96 1020.22 1020.49 1020.77 1021.04 1021.34 1021.56 1021.83 1021.98 1021.48 1021.63 1021.68 1022.21 1022.09 1022.01 1021.98 1021.97 1021.88 1021.84 1021.81 1021.83 1021.75 1021.67 1021.84 1021.74 1021.03 1020.95 1020.77 1020.82 1021.69 1021.49 1021.46 1021.52 1021.59 1021.58 1021.59 1021.56
1017.53 1017.94 1018.24 1018.42 1018.71 1019.21 1020.00 1020.29 1020.50 1020.66 1021.07 1020.86 1021.08 1021.31 1021.37 1021.54 1021.69 1021.88 1022.35 1022.54 1022.45 1022.25 1022.17 1022.10 1022.08 1022.07 1021.89 1021.27 1021.32 1021.68 1021.07 1021.17 1021.01 1021.00 1021.08 1021.89 1021.62 1021.65 1021.71 1021.81 1021.86 1021.91 1021.93
1017.32 1017.87 1018.25 1018.64 1018.90 1019.18 1019.34 1019.75 1020.46 1020.55 1020.88 1020.88 1021.16 1021.32 1021.50 1021.68 1021.72 1021.73 1021.79 1021.81 1021.89 1022.20 1021.64 1021.73 1021.59 1021.41 1021.29 1021.24 1021.15 1021.03 1021.10 1021.00 1020.88 1021.03 1021.44 1021.95 1021.82 1021.67 1021.78 1021.95 1022.00 1022.10 1022.15
1017.05 1017.64 1018.21 1018.56 1018.97 1019.05 1019.30 1019.63 1019.83 1020.29 1020.64 1020.83 1021.11 1021.39 1021.42 1021.45 1021.52 1021.63 1021.64 1021.76 1021.84 1021.74 1021.59 1021.55 1021.32 1021.38 1021.30 1021.28 1021.04 1020.97 1020.91 1020.86 1020.85 1020.96 1021.15 1021.85 1021.90 1021.74 1021.71 1021.89 1022.02 1022.16 1022.20
1016.73 1017.33 1017.86 1018.43 1018.74 1018.98 1019.24 1019.45 1019.72 1020.03 1020.53 1020.61 1021.04 1021.30 1021.37 1021.41 1021.41 1021.54 1021.56 1021.66 1021.71 1021.73 1021.56 1021.46 1021.36 1021.25 1021.10 1020.99 1020.90 1020.82 1020.66 1020.63 1020.74 1020.84 1020.94 1021.62 1021.84 1021.74 1021.70 1021.72 1021.87 1022.01 1022.13
1016.42 1016.93 1017.52 1018.08 1018.64 1018.86 1019.12 1019.43 1019.70 1019.93 1020.21 1020.53 1020.77 1020.98 1021.21 1021.24 1021.22 1021.32 1021.34 1021.53 1021.54 1021.59 1021.54 1021.46 1021.25 1021.18 1021.03 1020.97 1020.71 1020.71 1020.64 1020.61 1020.65 1020.81 1020.83 1021.00 1021.61 1021.69 1021.66 1021.62 1021.67 1021.81 1021.92
1016.04 1016.52 1017.12 1017.70 1018.23 1018.74 1019.05 1019.35 1019.77 1019.97 1020.21 1020.38 1020.58 1020.82 1020.94 1021.06 1021.05 1021.11 1021.17 1021.29 1021.33 1021.46 1021.65 1021.50 1021.28 1021.28 1021.10 1020.89 1020.74 1020.47 1020.53 1020.50 1020.55 1020.55 1020.72 1020.71 1020.89 1021.59 1021.56 1021.52 1021.53 1021.60 1021.71
1015.77 1016.27 1016.91 1017.54 1017.90 1018.37 1018.67 1019.10 1019.50 1019.75 1020.11 1020.15 1020.28 1020.54 1020.76 1020.90 1021.03 1021.04 1021.05 1021.04 1021.28 1021.43 1021.45 1021.29 1021.11 1021.04 1020.92 1020.72 1020.46 1020.24 1020.33 1020.27 1020.23 1020.27 1020.40 1020.52 1020.69 1020.66 1021.25 1021.42 1021.44 1021.41 1021.50
1015.63 1015.94 1016.52 1017.21 1017.64 1018.03 1018.40 1018.75 1019.18 1019.50 1019.78 1019.91 1020.05 1020.22 1020.44 1020.68 1020.85 1020.92 1020.84 1020.90 1021.11 1021.20 1021.28 1021.21 1021.08 1021.04 1020.69 1020.50 1020.40 1020.20 1020.02 1020.00 1019.93 1019.96 1020.05 1020.29 1020.49 1020.67 1020.55 1021.00 1021.31 1021.31 1021.34
1015.39 1015.74 1016.18 1016.78 1017.27 1017.80 1018.22 1018.58 1018.92 1019.20 1019.45 1019.62 1019.80 1019.93 1020.14 1020.38 1020.61 1020.78 1020.76 1020.84 1020.97 1021.05 1021.07 1021.14 1021.00 1020.88 1020.79 1020.63 1020.41 1020.08 1019.73 1019.62 1019.69 1019.74 1019.67 1019.91 1020.04 1020.41 1020.52 1020.55 1020.79 1020.89 1021.18
1015.46 1015.81 1016.09 1016.52 1017.04 1017.59 1018.01 1018.33 1018.61 1018.78 1019.06 1019.26 1019.47 1019.63 1019.87 1020.01 1020.25 1020.42 1020.43 1020.49 1020.74 1020.80 1020.71 1020.87 1020.84 1020.74 1020.55 1020.62 1020.38 1019.42 1019.05 1018.99 1019.09 1019.32 1019.48 1019.55 1019.60 1019.96 1020.11 1020.29 1020.38 1020.31 1020.48
1015.96 1015.91 1016.26 1016.60 1017.03 1017.58 1017.90 1018.11 1018.27 1018.37 1018.53 1018.63 1018.90 1019.21 1019.46 1019.68 1019.88 1020.05 1020.16 1020.17 1020.25 1020.49 1020.60 1020.66 1020.75 1020.45 1020.42 1020.47 1020.03 1019.65 1018.60 1018.58 1018.76 1018.81 1019.08 1019.20 1019.14 1019.35 1019.61 1019.72 1019.82 1019.93 1019.98
1016.71 1016.57 1016.54 1016.85 1017.12 1017.59 1017.96 1018.25 1018.63 1018.79 1019.06 1018.89 1018.86 1018.96 1018.99 1019.27 1019.46 1019.71 1019.81 1019.81 1019.88 1020.13 1020.13 1020.25 1020.40 1020.49 1020.14 1020.17 1020.24 1019.77 1018.95 1018.02 1018.27 1018.56 1018.71 1018.90 1018.98 1019.01 1019.19 1019.24 1019.33 1019.39 1019.48
1017.62 1017.31 1017.20 1017.36 1017.50 1017.75 1018.11 1018.26 1018.24 1018.14 1018.05 1018.09 1018.33 1018.44 1018.58 1018.80 1018.93 1019.12 1019.28 1019.42 1019.50 1019.66 1019.84 1019.84 1020.01 1020.14 1020.31 1019.90 1019.88 1019.98 1019.66 1019.42 1018.62 1017.85 1018.14 1018.32 1018.60 1018.60 1018.65 1018.77 1018.80 1018.82 1018.98
1018.86 1018.34 1018.04 1018.03 1018.17 1018.38 1018.45 1018.52 1018.37 1018.25 1018.16 1018.19 1018.47 1018.53 1018.45 1018.43 1018.51 1018.53 1018.78 1018.95 1019.09 1019.19 1019.23 1019.31 1019.53 1019.77 1019.90 1019.81 1019.48 1019.37 1019.60 1019.45 1019.28 1018.93 1017.72 1017.30 1017.97 1017.94 1018.02 1018.01 1018.01 1018.16 1018.29
1019.94 1019.54 1019.24 1018.95 1018.84 1018.92 1018.90 1018.92 1018.83 1018.73 1018.60 1018.48 1018.34 1018.31 1018.22 1018.22 1018.19 1018.28 1018.39 1018.39 1018.57 1018.68 1018.72 1018.82 1019.01 1019.24 1019.42 1019.47 1019.34 1019.19 1019.11 1018.83 1018.56 1018.70 1018.21 1017.70 1017.33 1017.06 1017.14 1017.32 1017.38 1017.31 1017.52
Wind_Speed
8 11 10 8 11 14 10 12 14 12 11 10 7 12 12 15 13 15 14 13 14 17 18 20 18 19 19 19 19 18 19 19 19 21 22 22 21 22 21 19 20 19 22
14 11 10 13 14 12 11 14 13 12 10 9 8 9 12 15 16 15 13 12 13 15 18 17 17 18 17 17 19 18 18 17 16 15 14 17 18 18 19 20 20 18 19
14 11 10 14 14 11 10 11 11 11 12 11 9 8 12 12 14 13 13 12 14 15 18 18 18 18 17 16 17 16 16 15 13 11 7 10 13 16 18 18 17 17 17
13 11 11 12 10 12 11 9 12 13 11 9 9 10 11 12 12 15 11 13 14 15 17 21 16 14 14 14 13 13 13 13 9 2 6 10 11 14 15 16 16 15 17
13 9 13 12 11 12 11 12 11 12 8 9 11 10 10 12 12 13 12 12 15 15 17 16 14 13 13 12 12 11 11 11 6 8 10 8 9 11 13 13 15 14 15
13 11 14 10 11 11 12 11 11 10 9 8 9 10 11 12 12 12 12 11 12 11 11 12 12 13 12 11 11 12 13 8 5 9 10 11 13 13 13 14 13 13 14
13 11 12 12 12 13 13 11 10 9 8 9 10 10 8 9 10 10 10 10 10 10 10 9 10 11 10 10 11 11 12 10 8 10 11 8 10 13 12 13 12 13 14
12 11 7 12 13 12 13 10 11 9 9 10 10 9 8 8 8 8 8 9 9 8 8 8 8 8 9 9 9 10 11 6 7 9 6 9 10 11 12 11 11 12 13
12 8 8 12 11 10 12 11 10 8 9 9 8 7 7 7 7 7 7 7 7 7 7 6 6 6 7 8 8 10 9 8 6 6 8 5 9 10 11 10 10 10 12
11 11 9 11 9 9 10 10 9 10 7 6 7 8 7 6 6 7 3 6 6 5 5 5 5 5 5 6 7 7 5 2 6 5 4 6 7 8 9 8 8 9 10
10 10 9 12 9 11 7 7 9 10 7 7 7 8 6 3 4 3 8 4 3 3 3 3 3 4 4 5 5 3 5 2 2 3 2 6 4 5 6 6 7 7 7
14 12 9 8 11 7 7 6 6 8 3 4 4 5 2 3 4 2 2 3 3 4 3 3 4 1 6 2 4 5 1 2 1 2 2 3 1 4 5 4 5 5 5
14 11 11 9 8 11 8 7 5 2 5 4 5 4 2 2 3 2 1 1 1 1 2 3 4 2 1 1 1 2 1 2 1 2 3 1 3 2 4 3 3 3 3
14 14 13 12 10 9 6 6 6 6 4 4 4 4 4 3 3 2 1 1 1 0 1 2 1 1 2 3 3 3 3 2 2 2 4 3 5 4 4 5 4 4 3
14 14 14 13 11 9 9 6 6 6 6 5 4 5 4 3 3 3 2 2 1 2 2 2 2 2 3 4 4 4 5 5 4 3 2 6 6 6 6 6 6 6 5
12 14 15 14 13 11 9 8 6 6 6 5 5 5 6 4 4 4 2 2 3 2 2 3 3 3 3 4 4 5 6 5 6 5 4 5 8 9 8 8 8 8 7
12 13 15 15 14 12 11 9 7 6 6 5 5 6 7 6 5 5 3 3 3 2 4 3 4 4 4 4 6 5 5 7 6 6 5 4 6 10 10 9 10 9 9
11 12 13 12 14 14 12 9 7 7 6 6 5 5 7 7 7 6 4 4 3 3 3 3 3 4 4 4 5 4 5 6 7 7 6 5 5 5 9 10 11 10 10
12 13 13 14 15 14 12 9 8 8 7 6 6 6 7 7 7 6 5 4 5 4 4 4 4 4 4 4 4 5 6 6 7 6 7 7 7 6 5 10 10 10 11
11 12 12 12 14 12 9 8 6 6 7 6 6 6 7 6 7 6 5 5 5 4 4 4 5 3 4 4 5 7 7 7 6 6 7 7 7 8 7 7 7 8 11
7 10 11 11 12 9 8 8 7 8 7 7 7 9 9 8 8 8 6 6 6 5 6 5 5 5 4 4 5 6 7 8 9 7 7 7 8 8 8 8 6 6 7
3 6 8 9 10 9 7 6 5 5 6 6 6 8 9 9 9 8 8 7 7 5 7 7 6 4 4 4 4 4 4 4 5 7 7 7 9 7 8 9 9 9 7
11 4 4 6 7 8 8 5 4 3 3 4 5 6 8 10 9 9 9 8 7 7 6 7 7 7 5 4 6 4 3 3 3 3 8 7 8 7 7 9 10 10 10
15 11 8 4 3 4 6 6 8 6 5 2 3 3 4 8 10 10 10 9 9 7 8 7 7 7 7 7 4 6 7 5 3 2 4 5 8 9 10 8 9 10 11
17 15 12 11 9 6 1 4 4 6 5 4 4 5 5 5 7 9 9 9 10 8 9 9 9 9 7 8 6 5 6 5 6 6 6 4 5 7 9 10 10 9 12
17 17 16 16 14 10 7 4 4 5 6 5 5 5 5 5 5 7 8 9 10 10 10 9 10 11 10 9 8 8 7 6 5 6 8 8 7 5 6 8 9 10 10
Wind_Direction
168 157 184 169 139 99 97 103 94 94 83 83 64 56 57 72 73 66 59 61 51 56 64 65 67 63 61 60 59 60 55 51 56 60 61 62 65 65 66 66 73 71 75
151 159 169 157 119 109 112 108 98 105 93 85 72 69 57 73 68 67 64 67 58 63 65 63 72 65 60 61 59 60 58 51 53 57 71 70 61 70 66 64 67 70 69
149 143 163 128 119 120 111 102 109 116 101 81 85 68 64 71 64 77 73 72 66 67 67 59 59 60 57 60 57 58 62 59 57 60 94 75 68 65 70 68 70 74 75
146 143 143 130 132 135 110 107 116 103 92 88 91 79 73 76 75 68 77 74 66 71 68 57 59 73 65 60 62 64 61 64 66 74 78 88 81 65 73 74 75 78 81
148 144 134 129 133 140 131 113 108 98 107 96 91 75 76 75 76 77 69 67 61 65 63 65 67 76 75 75 69 72 65 64 53 75 72 72 89 73 74 86 83 79 78
149 147 126 141 140 142 145 120 110 125 116 111 93 92 78 72 71 79 73 70 86 80 73 62 71 67 82 74 80 72 64 63 61 73 79 60 74 71 83 85 90 82 82
155 155 143 143 138 129 133 131 125 127 111 102 96 84 96 81 69 73 77 80 72 83 89 84 70 68 71 76 74 66 63 49 78 82 67 70 80 83 86 85 87 92 90
156 156 145 157 138 139 132 135 139 137 122 108 98 92 79 81 81 77 76 74 74 74 70 68 72 73 77 75 76 68 57 15 87 89 86 96 75 82 85 90 87 86 87
155 144 177 151 148 148 137 140 141 135 121 100 100 104 98 93 84 83 80 80 75 69 79 72 71 73 70 69 72 65 53 23 82 77 86 86 82 80 79 81 81 87 95
157 175 166 136 159 161 153 146 141 134 137 131 126 108 89 91 66 74 85 70 62 64 64 73 81 74 71 66 70 70 56 270 97 111 87 65 68 92 99 97 91 95 96
174 173 177 157 171 161 152 145 151 132 123 121 133 112 173 114 127 159 54 56 62 66 71 85 83 76 63 71 74 88 257 83 130 95 99 29 102 96 93 85 95 95 97
182 182 182 179 163 193 142 166 145 162 166 170 167 154 137 133 85 15 72 18 33 36 65 57 61 123 232 187 150 196 181 140 175 124 105 19 109 120 113 105 103 96 93
186 186 189 184 185 181 175 174 152 229 168 191 184 194 175 209 185 189 197 184 203 175 195 205 188 212 223 258 195 212 243 201 188 187 127 273 294 177 143 143 128 132 134
187 191 191 191 190 189 190 196 179 192 190 200 198 192 211 205 202 215 260 324 255 266 270 262 267 289 245 241 248 234 236 230 219 212 155 202 261 242 213 188 185 191 180
191 190 193 192 197 198 198 197 196 205 202 202 199 203 222 215 223 218 242 250 258 271 268 268 274 275 257 258 251 257 249 234 230 229 241 180 236 243 238 224 213 216 216
200 194 193 195 199 199 207 197 204 208 204 207 211 215 213 223 225 218 234 234 253 265 275 278 291 280 268 261 268 255 259 254 245 236 227 186 214 240 236 232 224 224 226
205 197 197 196 196 204 207 202 207 207 214 214 217 214 219 222 231 224 241 234 262 267 263 255 251 262 259 258 263 257 246 251 239 233 226 229 189 223 239 235 232 226 230
219 206 198 197 202 200 205 200 206 206 211 218 213 211 215 219 222 229 245 246 245 250 259 261 257 254 258 263 266 249 248 244 245 242 229 223 223 235 201 231 233 230 230
221 209 201 198 204 203 206 205 207 213 213 217 220 219 215 218 222 232 237 244 227 241 244 254 250 258 273 267 268 270 254 248 246 241 233 220 223 229 227 178 225 234 232
217 216 207 200 205 200 200 206 208 214 217 221 221 225 222 218 218 231 241 244 232 238 242 239 254 242 277 293 286 273 258 243 240 241 238 227 218 220 224 227 201 218 223
212 212 210 202 204 196 197 199 207 212 216 219 220 223 222 223 218 220 230 231 223 237 239 244 249 254 252 256 283 257 239 241 231 229 230 230 218 219 222 218 219 228 197
0 212 212 207 203 199 201 205 218 215 226 225 222 224 224 224 224 226 228 230 226 231 231 233 232 241 253 246 276 286 270 182 224 226 220 229 231 217 223 219 218 219 224
41 43 203 204 201 205 210 199 213 216 217 218 225 233 225 227 226 228 234 236 230 230 238 227 227 233 256 218 241 284 265 260 312 174 219 220 224 221 227 222 224 222 223
39 48 62 86 170 204 203 218 227 242 253 239 269 234 226 222 226 226 231 234 240 230 238 238 230 233 232 248 222 241 256 284 307 262 183 211 219 225 223 220 227 223 224
40 45 57 65 65 56 282 271 272 260 273 285 272 274 254 243 236 231 233 239 237 235 239 239 229 230 236 245 244 238 240 245 253 258 280 205 211 224 231 228 225 226 223
43 48 51 58 56 52 51 33 340 309 308 302 294 286 274 267 257 242 230 224 235 239 238 238 237 239 236 237 244 238 240 237 226 237 249 267 266 271 235 231 231 228 225